{"data":{"norad_id":63780,"epoch":"2026-09-19T17:16:52.317408Z","epoch_age_seconds":217233,"freshness":"STALE","line1":"1 63780U 25091F   26262.72004997  .00016233  00000+0  59839-3 0  9998","line2":"2 63780  42.9979  37.0031 0001044 292.0203  68.0538 15.27564852 78625","mean_motion":15.27564852,"eccentricity":0.0001044,"inclination_deg":42.9979,"raan_deg":37.0031,"arg_perigee_deg":292.0203,"mean_anomaly_deg":68.0538,"bstar":0.00059839,"rev_number":7862,"period_min":94.267683503888,"perigee_km":482.37814241205,"apogee_km":483.81076753985,"semimajor_km":6861.2314549759,"source":"CELESTRAK","updated_at":"2026-09-21T09:00:35.098750Z"}}